Hourly Weather Almala

Today, 6 March, Saturday

Time Temperature Precipitation Wind Pressure Humidity
00:00 -8°C° 0 mm 2 mps 736 mmHg 95%
01:00 -10°C° 0 mm 2 mps 737 mmHg 95%
02:00 -10°C° 0 mm 1 mps 737 mmHg 94%
03:00 -11°C° 0 mm 1 mps 737 mmHg 94%
04:00 -11°C° 0 mm 1 mps 738 mmHg 94%
05:00 -12°C° 0 mm 1 mps 738 mmHg 93%
06:00 -12°C° 0 mm 1 mps 738 mmHg 93%
07:00 -12°C° 0 mm 1 mps 738 mmHg 92%
08:00 -11°C° 0 mm 1 mps 739 mmHg 91%
09:00 -10°C° 0 mm 1 mps 739 mmHg 90%
10:00 -9°C° 0 mm 1 mps 739 mmHg 88%
11:00 -8°C° 0 mm 1 mps 740 mmHg 87%
12:00 -7°C° 0 mm 1 mps 740 mmHg 85%
13:00 -6°C° 0 mm 1 mps 740 mmHg 84%
14:00 -6°C° 0 mm 1 mps 740 mmHg 86%
15:00 -6°C° 0 mm 1 mps 739 mmHg 89%
16:00 -6°C° 0 mm 1 mps 739 mmHg 91%
17:00 -7°C° 0 mm 1 mps 739 mmHg 91%
18:00 -8°C° 0 mm 0 mps 739 mmHg 91%
19:00 -8°C° 0 mm 0 mps 739 mmHg 91%
20:00 -8°C° 0 mm 0 mps 738 mmHg 91%
21:00 -8°C° 0 mm 1 mps 738 mmHg 91%
22:00 -8°C° 0 mm 1 mps 738 mmHg 91%
23:00 -8°C° 0.2 mm 1 mps 737 mmHg 92%

Tomorrow, 7 March, Sunday

Time Temperature Precipitation Wind Pressure Humidity
00:00 -9°C° 0.2 mm 2 mps 736 mmHg 94%
01:00 -9°C° 0.2 mm 2 mps 736 mmHg 96%
02:00 -10°C° 0.4 mm 3 mps 735 mmHg 95%
03:00 -10°C° 0.4 mm 3 mps 735 mmHg 95%
04:00 -11°C° 0.4 mm 4 mps 735 mmHg 95%
05:00 -12°C° 0.3 mm 4 mps 735 mmHg 94%
06:00 -12°C° 0.3 mm 4 mps 734 mmHg 94%
07:00 -13°C° 0.3 mm 5 mps 734 mmHg 94%
08:00 -13°C° 0.1 mm 5 mps 734 mmHg 92%
09:00 -13°C° 0.1 mm 5 mps 734 mmHg 91%
10:00 -13°C° 0.1 mm 5 mps 735 mmHg 90%
11:00 -13°C° 0 mm 5 mps 735 mmHg 87%
12:00 -13°C° 0 mm 5 mps 736 mmHg 84%
13:00 -13°C° 0 mm 5 mps 736 mmHg 82%
14:00 -14°C° 0 mm 4 mps 736 mmHg 84%
15:00 -14°C° 0 mm 4 mps 737 mmHg 85%
16:00 -13°C° 0 mm 3 mps 737 mmHg 87%
17:00 -15°C° 0 mm 3 mps 737 mmHg 88%
18:00 -16°C° 0 mm 3 mps 738 mmHg 88%
19:00 -16°C° 0 mm 2 mps 738 mmHg 89%
20:00 -18°C° 0 mm 3 mps 738 mmHg 88%
21:00 -18°C° 0 mm 3 mps 738 mmHg 87%
22:00 -19°C° 0 mm 4 mps 739 mmHg 86%
23:00 -19°C° 0 mm 4 mps 738 mmHg 89%

Day after tomorrow, 8 March, Monday

Time Temperature Precipitation Wind Pressure Humidity
00:00 -19°C° 0 mm 5 mps 738 mmHg 92%
01:00 -19°C° 0 mm 5 mps 738 mmHg 96%
02:00 -18°C° 0 mm 6 mps 737 mmHg 94%
03:00 -17°C° 0 mm 6 mps 737 mmHg 92%
04:00 -17°C° 0 mm 7 mps 736 mmHg 90%
05:00 -16°C° 0.1 mm 8 mps 736 mmHg 90%
06:00 -16°C° 0.1 mm 8 mps 735 mmHg 90%
07:00 -15°C° 0.1 mm 9 mps 735 mmHg 90%
08:00 -14°C° 0.1 mm 9 mps 734 mmHg 90%
09:00 -13°C° 0.1 mm 10 mps 734 mmHg 91%
10:00 -13°C° 0.1 mm 10 mps 734 mmHg 91%
11:00 -12°C° 0.1 mm 10 mps 734 mmHg 91%
12:00 -10°C° 0.1 mm 10 mps 734 mmHg 91%
13:00 -9°C° 0.1 mm 10 mps 733 mmHg 91%
14:00 -8°C° 0.2 mm 10 mps 733 mmHg 91%
15:00 -8°C° 0.2 mm 9 mps 734 mmHg 92%
16:00 -8°C° 0.2 mm 9 mps 734 mmHg 92%
17:00 -8°C° 0.1 mm 9 mps 734 mmHg 92%
18:00 -7°C° 0.1 mm 8 mps 734 mmHg 93%
19:00 -7°C° 0.1 mm 8 mps 734 mmHg 93%
20:00 -7°C° 0.1 mm 8 mps 734 mmHg 93%
21:00 -7°C° 0.1 mm 8 mps 734 mmHg 93%
22:00 -7°C° 0.1 mm 8 mps 734 mmHg 93%
23:00 -7°C° 0.2 mm 8 mps 733 mmHg 94%

9 March, Tuesday

Time Temperature Precipitation Wind Pressure Humidity
00:00 -7°C° 0.2 mm 8 mps 733 mmHg 94%
01:00 -7°C° 0.2 mm 8 mps 733 mmHg 94%
02:00 -7°C° 0.3 mm 8 mps 733 mmHg 93%
03:00 -8°C° 0.3 mm 8 mps 733 mmHg 91%
04:00 -10°C° 0.3 mm 8 mps 734 mmHg 90%
05:00 -11°C° 0 mm 6 mps 734 mmHg 91%
06:00 -14°C° 0 mm 5 mps 735 mmHg 92%
07:00 -17°C° 0 mm 4 mps 735 mmHg 93%
08:00 -16°C° 0 mm 4 mps 736 mmHg 93%
09:00 -16°C° 0 mm 4 mps 737 mmHg 93%
10:00 -16°C° 0 mm 4 mps 737 mmHg 92%
11:00 -14°C° 0 mm 3 mps 738 mmHg 92%
12:00 -13°C° 0 mm 3 mps 738 mmHg 91%
13:00 -12°C° 0 mm 3 mps 738 mmHg 90%
14:00 -13°C° 0 mm 3 mps 738 mmHg 91%
15:00 -12°C° 0 mm 2 mps 738 mmHg 92%
16:00 -12°C° 0 mm 2 mps 738 mmHg 93%
17:00 -13°C° 0 mm 2 mps 738 mmHg 93%
18:00 -15°C° 0 mm 2 mps 738 mmHg 94%
19:00 -14°C° 0 mm 1 mps 738 mmHg 95%
20:00 -15°C° 0 mm 1 mps 738 mmHg 94%
21:00 -15°C° 0 mm 1 mps 739 mmHg 94%
22:00 -15°C° 0 mm 1 mps 739 mmHg 94%
23:00 -15°C° 0 mm 1 mps 739 mmHg 94%

10 March, Wednesday

Time Temperature Precipitation Wind Pressure Humidity
00:00 -15°C° 0 mm 1 mps 739 mmHg 94%
01:00 -16°C° 0 mm 1 mps 738 mmHg 95%
02:00 -16°C° 0 mm 1 mps 738 mmHg 95%
03:00 -17°C° 0 mm 1 mps 738 mmHg 96%
04:00 -17°C° 0 mm 1 mps 738 mmHg 97%
05:00 -17°C° 0 mm 1 mps 737 mmHg 97%
06:00 -16°C° 0 mm 1 mps 737 mmHg 96%
07:00 -17°C° 0 mm 2 mps 737 mmHg 95%
08:00 -17°C° 0.1 mm 2 mps 737 mmHg 95%
09:00 -16°C° 0.1 mm 2 mps 737 mmHg 94%
10:00 -16°C° 0.1 mm 3 mps 736 mmHg 94%
11:00 -17°C° 0.1 mm 4 mps 736 mmHg 94%
12:00 -16°C° 0.1 mm 4 mps 736 mmHg 93%
13:00 -17°C° 0.1 mm 5 mps 736 mmHg 93%
14:00 -17°C° 0.1 mm 5 mps 736 mmHg 92%
15:00 -17°C° 0.1 mm 5 mps 736 mmHg 91%
16:00 -17°C° 0.1 mm 6 mps 736 mmHg 91%
17:00 -20°C° 0 mm 6 mps 736 mmHg 91%
18:00 -21°C° 0 mm 6 mps 737 mmHg 92%
19:00 -22°C° 0 mm 6 mps 737 mmHg 92%
20:00 -23°C° 0 mm 6 mps 738 mmHg 93%
21:00 -23°C° 0 mm 6 mps 738 mmHg 93%
22:00 -24°C° 0 mm 5 mps 739 mmHg 94%
23:00 -25°C° 0 mm 5 mps 739 mmHg 94%

11 March, Thursday

Time Temperature Precipitation Wind Pressure Humidity
00:00 -26°C° 0 mm 5 mps 739 mmHg 95%
01:00 -26°C° 0 mm 4 mps 739 mmHg 95%
02:00 -29°C° 0 mm 4 mps 740 mmHg 96%
03:00 -30°C° 0 mm 4 mps 740 mmHg 97%
04:00 -31°C° 0 mm 4 mps 740 mmHg 98%
05:00 -32°C° 0 mm 4 mps 741 mmHg 98%
06:00 -32°C° 0 mm 4 mps 741 mmHg 98%
07:00 -32°C° 0 mm 3 mps 742 mmHg 98%
08:00 -31°C° 0 mm 3 mps 743 mmHg 97%
09:00 -31°C° 0 mm 4 mps 743 mmHg 96%
10:00 -30°C° 0 mm 4 mps 744 mmHg 94%
11:00 -29°C° 0 mm 4 mps 744 mmHg 94%
12:00 -27°C° 0 mm 4 mps 745 mmHg 94%
13:00 -25°C° 0 mm 3 mps 745 mmHg 93%
14:00 -26°C° 0 mm 4 mps 746 mmHg 93%
15:00 -26°C° 0 mm 4 mps 746 mmHg 93%
16:00 -26°C° 0 mm 4 mps 746 mmHg 92%
17:00 -26°C° 0 mm 3 mps 746 mmHg 93%
18:00 -27°C° 0 mm 3 mps 747 mmHg 94%
19:00 -30°C° 0 mm 3 mps 747 mmHg 94%
20:00 -30°C° 0 mm 3 mps 747 mmHg 95%
21:00 -28°C° 0 mm 2 mps 748 mmHg 96%
22:00 -28°C° 0 mm 2 mps 748 mmHg 97%
23:00 -29°C° 0 mm 2 mps 749 mmHg 97%
Show more